Year,Month,Day,Hour,Minute,Value (Times are PST for temperature in C)
2020,09,29,00,00,12.10
2020,09,29,00,01,12.20
2020,09,29,00,02,12.20
2020,09,29,00,03,12.20
2020,09,29,00,04,12.20
2020,09,29,00,05,12.20
2020,09,29,00,06,12.20
2020,09,29,00,07,12.20
2020,09,29,00,08,12.10
2020,09,29,00,09,12.10
2020,09,29,00,10,12.10
2020,09,29,00,11,12.10
2020,09,29,00,12,12.00
2020,09,29,00,13,12.00
2020,09,29,00,14,12.00
2020,09,29,00,15,11.90
2020,09,29,00,16,11.90
2020,09,29,00,17,11.80
2020,09,29,00,18,11.80
2020,09,29,00,19,11.80
2020,09,29,00,20,11.80
2020,09,29,00,21,11.70
2020,09,29,00,22,11.70
2020,09,29,00,23,11.70
2020,09,29,00,24,11.70
2020,09,29,00,25,11.70
2020,09,29,00,26,11.70
2020,09,29,00,27,11.80
2020,09,29,00,28,11.80
2020,09,29,00,29,11.90
2020,09,29,00,30,12.00
2020,09,29,00,31,12.10
2020,09,29,00,32,12.20
2020,09,29,00,33,12.30
2020,09,29,00,34,12.30
2020,09,29,00,35,12.30
2020,09,29,00,36,12.30
2020,09,29,00,37,12.30
2020,09,29,00,38,12.40
2020,09,29,00,39,12.40
2020,09,29,00,40,12.40
2020,09,29,00,41,12.50
2020,09,29,00,42,12.50
2020,09,29,00,43,12.50
2020,09,29,00,44,12.50
2020,09,29,00,45,12.50
2020,09,29,00,46,12.50
2020,09,29,00,47,12.40
2020,09,29,00,48,12.40
2020,09,29,00,49,12.40
2020,09,29,00,50,12.30
2020,09,29,00,51,12.20
2020,09,29,00,52,12.10
2020,09,29,00,53,12.00
2020,09,29,00,54,11.90
2020,09,29,00,55,11.80
2020,09,29,00,56,11.70
2020,09,29,00,57,11.70
2020,09,29,00,58,11.60
2020,09,29,00,59,11.50
2020,09,29,01,00,11.50
2020,09,29,01,01,11.40
2020,09,29,01,02,11.40
2020,09,29,01,03,11.30
2020,09,29,01,04,11.30
2020,09,29,01,05,11.30
2020,09,29,01,06,11.30
2020,09,29,01,07,11.30
2020,09,29,01,08,11.20
2020,09,29,01,09,11.20
2020,09,29,01,10,11.30
2020,09,29,01,11,11.40
2020,09,29,01,12,11.50
2020,09,29,01,13,11.60
2020,09,29,01,14,11.60
2020,09,29,01,15,11.70
2020,09,29,01,16,11.80
2020,09,29,01,17,11.90
2020,09,29,01,18,11.90
2020,09,29,01,19,12.00
2020,09,29,01,20,12.00
2020,09,29,01,21,12.00
2020,09,29,01,22,12.00
2020,09,29,01,23,11.90
2020,09,29,01,24,11.90
2020,09,29,01,25,11.80
2020,09,29,01,26,11.80
2020,09,29,01,27,11.70
2020,09,29,01,28,11.60
2020,09,29,01,29,11.60
2020,09,29,01,30,11.50
2020,09,29,01,31,11.50
2020,09,29,01,32,11.40
2020,09,29,01,33,11.40
2020,09,29,01,34,11.30
2020,09,29,01,35,11.30
2020,09,29,01,36,11.30
2020,09,29,01,37,11.30
2020,09,29,01,38,11.40
2020,09,29,01,39,11.50
2020,09,29,01,40,11.70
2020,09,29,01,41,11.80
2020,09,29,01,42,11.90
2020,09,29,01,43,12.00
2020,09,29,01,44,12.10
2020,09,29,01,45,12.10
2020,09,29,01,46,12.20
2020,09,29,01,47,12.20
2020,09,29,01,48,12.30
2020,09,29,01,49,12.30
2020,09,29,01,50,12.30
2020,09,29,01,51,12.30
2020,09,29,01,52,12.30
2020,09,29,01,53,12.30
2020,09,29,01,54,12.30
2020,09,29,01,55,12.40
2020,09,29,01,56,12.40
2020,09,29,01,57,12.30
2020,09,29,01,58,12.40
2020,09,29,01,59,12.30
2020,09,29,02,00,12.30
2020,09,29,02,01,12.30
2020,09,29,02,02,12.20
2020,09,29,02,03,12.10
2020,09,29,02,04,12.00
2020,09,29,02,05,11.90
2020,09,29,02,06,11.80
2020,09,29,02,07,11.60
2020,09,29,02,08,11.50
2020,09,29,02,09,11.40
2020,09,29,02,10,11.20
2020,09,29,02,11,11.20
2020,09,29,02,12,11.10
2020,09,29,02,13,11.00
2020,09,29,02,14,10.90
2020,09,29,02,15,10.90
2020,09,29,02,16,10.80
2020,09,29,02,17,10.80
2020,09,29,02,18,10.80
2020,09,29,02,19,10.70
2020,09,29,02,20,10.70
2020,09,29,02,21,10.70
2020,09,29,02,22,10.70
2020,09,29,02,23,10.70
2020,09,29,02,24,10.70
2020,09,29,02,25,10.70
2020,09,29,02,26,10.70
2020,09,29,02,27,10.70
2020,09,29,02,28,10.60
2020,09,29,02,29,10.60
2020,09,29,02,30,10.60
2020,09,29,02,31,10.60
2020,09,29,02,32,10.60
2020,09,29,02,33,10.60
2020,09,29,02,34,10.60
2020,09,29,02,35,10.60
2020,09,29,02,36,10.60
2020,09,29,02,37,10.60
2020,09,29,02,38,10.60
2020,09,29,02,39,10.60
2020,09,29,02,40,10.60
2020,09,29,02,41,10.60
2020,09,29,02,42,10.60
2020,09,29,02,43,10.60
2020,09,29,02,44,10.60
2020,09,29,02,45,10.50
2020,09,29,02,46,10.50
2020,09,29,02,47,10.50
2020,09,29,02,48,10.50
2020,09,29,02,49,10.50
2020,09,29,02,50,10.50
2020,09,29,02,51,10.50
2020,09,29,02,52,10.50
2020,09,29,02,53,10.50
2020,09,29,02,54,10.50
2020,09,29,02,55,10.60
2020,09,29,02,56,10.60
2020,09,29,02,57,10.60
2020,09,29,02,58,10.80
2020,09,29,02,59,11.00
2020,09,29,03,00,11.30
2020,09,29,03,01,11.60
2020,09,29,03,02,11.70
2020,09,29,03,03,11.90
2020,09,29,03,04,12.00
2020,09,29,03,05,12.10
2020,09,29,03,06,12.20
2020,09,29,03,07,12.30
2020,09,29,03,08,12.30
2020,09,29,03,09,12.30
2020,09,29,03,10,12.30
2020,09,29,03,11,12.30
2020,09,29,03,12,12.30
2020,09,29,03,13,12.30
2020,09,29,03,14,12.20
2020,09,29,03,15,12.10
2020,09,29,03,16,12.00
2020,09,29,03,17,11.90
2020,09,29,03,18,11.90
2020,09,29,03,19,12.10
2020,09,29,03,20,12.10
2020,09,29,03,21,12.20
2020,09,29,03,22,12.30
2020,09,29,03,23,12.40
2020,09,29,03,24,12.40
2020,09,29,03,25,12.50
2020,09,29,03,26,12.50
2020,09,29,03,27,12.50
2020,09,29,03,28,12.50
2020,09,29,03,29,12.50
2020,09,29,03,30,12.50
2020,09,29,03,31,12.50
2020,09,29,03,32,12.60
2020,09,29,03,33,12.60
2020,09,29,03,34,12.60
2020,09,29,03,35,12.70
2020,09,29,03,36,12.70
2020,09,29,03,37,12.70
2020,09,29,03,38,12.70
2020,09,29,03,39,12.70
2020,09,29,03,40,12.70
2020,09,29,03,41,12.70
2020,09,29,03,42,12.70
2020,09,29,03,43,12.70
2020,09,29,03,44,12.60
2020,09,29,03,45,12.60
2020,09,29,03,46,12.60
2020,09,29,03,47,12.60
2020,09,29,03,48,12.60
2020,09,29,03,49,12.70
2020,09,29,03,50,12.70
2020,09,29,03,51,12.70
2020,09,29,03,52,12.70
2020,09,29,03,53,12.60
2020,09,29,03,54,12.60
2020,09,29,03,55,12.60
2020,09,29,03,56,12.60
2020,09,29,03,57,12.60
2020,09,29,03,58,12.60
2020,09,29,03,59,12.60
2020,09,29,04,00,12.60
2020,09,29,04,01,12.60
2020,09,29,04,02,12.60
2020,09,29,04,03,12.60
2020,09,29,04,04,12.60
2020,09,29,04,05,12.60
2020,09,29,04,06,12.60
2020,09,29,04,07,12.60
2020,09,29,04,08,12.60
2020,09,29,04,09,12.60
2020,09,29,04,10,12.60
2020,09,29,04,11,12.60
2020,09,29,04,12,12.60
2020,09,29,04,13,12.70
2020,09,29,04,14,12.70
2020,09,29,04,15,12.70
2020,09,29,04,16,12.70
2020,09,29,04,17,12.70
2020,09,29,04,18,12.70
2020,09,29,04,19,12.70
2020,09,29,04,20,12.70
2020,09,29,04,21,12.70
2020,09,29,04,22,12.70
2020,09,29,04,23,12.60
2020,09,29,04,24,12.60
2020,09,29,04,25,12.60
2020,09,29,04,26,12.60
2020,09,29,04,27,12.60
2020,09,29,04,28,12.60
2020,09,29,04,29,12.60
2020,09,29,04,30,12.60
2020,09,29,04,31,12.60
2020,09,29,04,32,12.60
2020,09,29,04,33,12.60
2020,09,29,04,34,12.60
2020,09,29,04,35,12.70
2020,09,29,04,36,12.70
2020,09,29,04,37,12.70
2020,09,29,04,38,12.60
2020,09,29,04,39,12.60
2020,09,29,04,40,12.60
2020,09,29,04,41,12.60
2020,09,29,04,42,12.60
2020,09,29,04,43,12.60
2020,09,29,04,44,12.60
2020,09,29,04,45,12.60
2020,09,29,04,46,12.60
2020,09,29,04,47,12.60
2020,09,29,04,48,12.60
2020,09,29,04,49,12.60
2020,09,29,04,50,12.60
2020,09,29,04,51,12.60
2020,09,29,04,52,12.60
2020,09,29,04,53,12.60
2020,09,29,04,54,12.60
2020,09,29,04,55,12.60
2020,09,29,04,56,12.60
2020,09,29,04,57,12.60
2020,09,29,04,58,12.60
2020,09,29,04,59,12.60
2020,09,29,05,00,12.60
2020,09,29,05,01,12.60
2020,09,29,05,02,12.60
2020,09,29,05,03,12.70
2020,09,29,05,04,12.70
2020,09,29,05,05,12.70
2020,09,29,05,06,12.70
2020,09,29,05,07,12.60
2020,09,29,05,08,12.60
2020,09,29,05,09,12.60
2020,09,29,05,10,12.60
2020,09,29,05,11,12.60
2020,09,29,05,12,12.60
2020,09,29,05,13,12.70
2020,09,29,05,14,12.70
2020,09,29,05,15,12.70
2020,09,29,05,16,12.70
2020,09,29,05,17,12.70
2020,09,29,05,18,12.70
2020,09,29,05,19,12.60
2020,09,29,05,20,12.60
2020,09,29,05,21,12.60
2020,09,29,05,22,12.60
2020,09,29,05,23,12.60
2020,09,29,05,24,12.60
2020,09,29,05,25,12.60
2020,09,29,05,26,12.50
2020,09,29,05,27,12.50
2020,09,29,05,28,12.40
2020,09,29,05,29,12.30
2020,09,29,05,30,12.20
2020,09,29,05,31,12.10
2020,09,29,05,32,12.00
2020,09,29,05,33,11.90
2020,09,29,05,34,11.70
2020,09,29,05,35,11.50
2020,09,29,05,36,11.30
2020,09,29,05,37,11.20
2020,09,29,05,38,11.10
2020,09,29,05,39,11.00
2020,09,29,05,40,10.90
2020,09,29,05,41,10.90
2020,09,29,05,42,10.80
2020,09,29,05,43,10.80
2020,09,29,05,44,10.70
2020,09,29,05,45,10.60
2020,09,29,05,46,10.60
2020,09,29,05,47,10.50
2020,09,29,05,48,10.50
2020,09,29,05,49,10.40
2020,09,29,05,50,10.40
2020,09,29,05,51,10.30
2020,09,29,05,52,10.30
2020,09,29,05,53,10.30
2020,09,29,05,54,10.30
2020,09,29,05,55,10.30
2020,09,29,05,56,10.20
2020,09,29,05,57,10.20
2020,09,29,05,58,10.20
2020,09,29,05,59,10.20
2020,09,29,06,00,10.20
2020,09,29,06,01,10.20
2020,09,29,06,02,10.20
2020,09,29,06,03,10.20
2020,09,29,06,04,10.30
2020,09,29,06,05,10.30
2020,09,29,06,06,10.20
2020,09,29,06,07,10.20
2020,09,29,06,08,10.20
2020,09,29,06,09,10.20
2020,09,29,06,10,10.20
2020,09,29,06,11,10.10
2020,09,29,06,12,10.10
2020,09,29,06,13,10.10
2020,09,29,06,14,10.00
2020,09,29,06,15,10.00
2020,09,29,06,16,10.00
2020,09,29,06,17,10.10
2020,09,29,06,18,10.10
2020,09,29,06,19,10.10
2020,09,29,06,20,10.10
2020,09,29,06,21,10.10
2020,09,29,06,22,10.10
2020,09,29,06,23,10.10
2020,09,29,06,24,10.00
2020,09,29,06,25,10.00
2020,09,29,06,26,9.90
2020,09,29,06,27,9.90
2020,09,29,06,28,9.90
2020,09,29,06,29,9.90
2020,09,29,06,30,9.80
2020,09,29,06,31,9.80
2020,09,29,06,32,9.80
2020,09,29,06,33,9.80
2020,09,29,06,34,9.80
2020,09,29,06,35,9.80
2020,09,29,06,36,9.80
2020,09,29,06,37,9.80
2020,09,29,06,38,9.80
2020,09,29,06,39,9.80
2020,09,29,06,40,9.80
2020,09,29,06,41,9.80
2020,09,29,06,42,9.80
2020,09,29,06,43,9.80
2020,09,29,06,44,9.80
2020,09,29,06,45,9.80
2020,09,29,06,46,9.80
2020,09,29,06,47,9.80
2020,09,29,06,48,9.80
2020,09,29,06,49,9.70
2020,09,29,06,50,9.70
2020,09,29,06,51,9.70
2020,09,29,06,52,9.70
2020,09,29,06,53,9.70
2020,09,29,06,54,9.70
2020,09,29,06,55,9.70
2020,09,29,06,56,9.70
2020,09,29,06,57,9.70
2020,09,29,06,58,9.70
2020,09,29,06,59,9.60
2020,09,29,07,00,9.60
2020,09,29,07,01,9.60
2020,09,29,07,02,9.60
2020,09,29,07,03,9.50
2020,09,29,07,04,9.50
2020,09,29,07,05,9.50
2020,09,29,07,06,9.60
2020,09,29,07,07,9.60
2020,09,29,07,08,9.60
2020,09,29,07,09,9.60
2020,09,29,07,10,9.70
2020,09,29,07,11,9.70
2020,09,29,07,12,9.60
2020,09,29,07,13,9.70
2020,09,29,07,14,9.70
2020,09,29,07,15,9.70
2020,09,29,07,16,9.70
2020,09,29,07,17,9.70
2020,09,29,07,18,9.70
2020,09,29,07,19,9.70
2020,09,29,07,20,9.70
2020,09,29,07,21,9.70
2020,09,29,07,22,9.60
2020,09,29,07,23,9.60
2020,09,29,07,24,9.60
2020,09,29,07,25,9.60
2020,09,29,07,26,9.60
2020,09,29,07,27,9.60
2020,09,29,07,28,9.60
2020,09,29,07,29,9.60
2020,09,29,07,30,9.60
2020,09,29,07,31,9.60
2020,09,29,07,32,9.60
2020,09,29,07,33,9.60
2020,09,29,07,34,9.50
2020,09,29,07,35,9.50
2020,09,29,07,36,9.50
2020,09,29,07,37,9.50
2020,09,29,07,38,9.50
2020,09,29,07,39,9.50
2020,09,29,07,40,9.60
2020,09,29,07,41,9.60
2020,09,29,07,42,9.50
2020,09,29,07,43,9.60
2020,09,29,07,44,9.50
2020,09,29,07,45,9.60
2020,09,29,07,46,9.60
2020,09,29,07,47,9.60
2020,09,29,07,48,9.60
2020,09,29,07,49,9.70
2020,09,29,07,50,9.70
2020,09,29,07,51,9.70
2020,09,29,07,52,9.80
2020,09,29,07,53,9.80
2020,09,29,07,54,9.80
2020,09,29,07,55,9.80
2020,09,29,07,56,9.80
2020,09,29,07,57,9.80
2020,09,29,07,58,9.80
2020,09,29,07,59,9.80
2020,09,29,08,00,9.80
2020,09,29,08,01,9.80
2020,09,29,08,02,9.80
2020,09,29,08,03,9.80
2020,09,29,08,04,9.80
2020,09,29,08,05,9.80
2020,09,29,08,06,9.80
2020,09,29,08,07,9.80
2020,09,29,08,08,9.80
2020,09,29,08,09,9.80
2020,09,29,08,10,9.80
2020,09,29,08,11,9.90
2020,09,29,08,12,10.00
2020,09,29,08,13,10.00
2020,09,29,08,14,10.10
2020,09,29,08,15,10.10
2020,09,29,08,16,10.10
2020,09,29,08,17,10.10
2020,09,29,08,18,10.10
2020,09,29,08,19,10.10
2020,09,29,08,20,10.10
2020,09,29,08,21,10.10
2020,09,29,08,22,10.10
2020,09,29,08,23,10.10
2020,09,29,08,24,10.10
2020,09,29,08,25,10.20
2020,09,29,08,26,10.20
2020,09,29,08,27,10.20
2020,09,29,08,28,10.20
2020,09,29,08,29,10.20
2020,09,29,08,30,10.30
2020,09,29,08,31,10.30
2020,09,29,08,32,10.30
2020,09,29,08,33,10.30
2020,09,29,08,34,10.30
2020,09,29,08,35,10.30
2020,09,29,08,36,10.40
2020,09,29,08,37,10.40
2020,09,29,08,38,10.50
2020,09,29,08,39,10.50
2020,09,29,08,40,10.60
2020,09,29,08,41,10.70
2020,09,29,08,42,10.70
2020,09,29,08,43,10.80
2020,09,29,08,44,10.90
2020,09,29,08,45,11.00
2020,09,29,08,46,11.00
2020,09,29,08,47,11.10
2020,09,29,08,48,11.20
2020,09,29,08,49,11.30
2020,09,29,08,50,11.40
2020,09,29,08,51,11.50
2020,09,29,08,52,11.70
2020,09,29,08,53,11.80
2020,09,29,08,54,12.00
2020,09,29,08,55,12.10
2020,09,29,08,56,12.20
2020,09,29,08,57,12.30
2020,09,29,08,58,12.40
2020,09,29,08,59,12.50
2020,09,29,09,00,12.60
2020,09,29,09,01,12.60
2020,09,29,09,02,12.70
2020,09,29,09,03,12.70
2020,09,29,09,04,12.80
2020,09,29,09,05,12.80
2020,09,29,09,06,12.90
2020,09,29,09,07,13.00
2020,09,29,09,08,13.00
2020,09,29,09,09,13.10
2020,09,29,09,10,13.10
2020,09,29,09,11,13.20
2020,09,29,09,12,13.20
2020,09,29,09,13,13.30
2020,09,29,09,14,13.30
2020,09,29,09,15,13.30
2020,09,29,09,16,13.30
2020,09,29,09,17,13.40
2020,09,29,09,18,13.50
2020,09,29,09,19,13.60
2020,09,29,09,20,13.60
2020,09,29,09,21,13.70
2020,09,29,09,22,13.70
2020,09,29,09,23,13.80
2020,09,29,09,24,13.80
2020,09,29,09,25,13.90
2020,09,29,09,26,14.00
2020,09,29,09,27,14.00
2020,09,29,09,28,14.00
2020,09,29,09,29,14.00
2020,09,29,09,30,14.00
2020,09,29,09,31,14.00
2020,09,29,09,32,14.10
2020,09,29,09,33,14.10
2020,09,29,09,34,14.20
2020,09,29,09,35,14.20
2020,09,29,09,36,14.30
2020,09,29,09,37,14.30
2020,09,29,09,38,14.30
2020,09,29,09,39,14.30
2020,09,29,09,40,14.40
2020,09,29,09,41,14.40
2020,09,29,09,42,14.50
2020,09,29,09,43,14.50
2020,09,29,09,44,14.60
2020,09,29,09,45,14.70
2020,09,29,09,46,14.80
2020,09,29,09,47,14.80
2020,09,29,09,48,14.80
2020,09,29,09,49,14.90
2020,09,29,09,50,14.90
2020,09,29,09,51,15.00
2020,09,29,09,52,15.00
2020,09,29,09,53,15.10
2020,09,29,09,54,15.20
2020,09,29,09,55,15.20
2020,09,29,09,56,15.30
2020,09,29,09,57,15.30
2020,09,29,09,58,15.40
2020,09,29,09,59,15.40
2020,09,29,10,00,15.40
2020,09,29,10,01,15.50
2020,09,29,10,02,15.50
2020,09,29,10,03,15.60
2020,09,29,10,04,15.60
2020,09,29,10,05,15.70
2020,09,29,10,06,15.80
2020,09,29,10,07,15.90
2020,09,29,10,08,16.00
2020,09,29,10,09,16.10
2020,09,29,10,10,16.20
2020,09,29,10,11,16.30
2020,09,29,10,12,16.40
2020,09,29,10,13,16.50
2020,09,29,10,14,16.50
2020,09,29,10,15,16.60
2020,09,29,10,16,16.70
2020,09,29,10,17,16.80
2020,09,29,10,18,16.80
2020,09,29,10,19,16.90
2020,09,29,10,20,17.00
2020,09,29,10,21,17.10
2020,09,29,10,22,17.20
2020,09,29,10,23,17.20
2020,09,29,10,24,17.30
2020,09,29,10,25,17.30
2020,09,29,10,26,17.40
2020,09,29,10,27,17.40
2020,09,29,10,28,17.40
2020,09,29,10,29,17.40
2020,09,29,10,30,17.50
2020,09,29,10,31,17.50
2020,09,29,10,32,17.60
2020,09,29,10,33,17.70
2020,09,29,10,34,17.90
2020,09,29,10,35,18.00
2020,09,29,10,36,18.00
2020,09,29,10,37,18.10
2020,09,29,10,38,18.20
2020,09,29,10,39,18.30
2020,09,29,10,40,18.40
2020,09,29,10,41,18.40
2020,09,29,10,42,18.50
2020,09,29,10,43,18.60
2020,09,29,10,44,18.60
2020,09,29,10,45,18.70
2020,09,29,10,46,18.80
2020,09,29,10,47,18.80
2020,09,29,10,48,18.90
2020,09,29,10,49,19.00
2020,09,29,10,50,19.10
2020,09,29,10,51,19.10
2020,09,29,10,52,19.20
2020,09,29,10,53,19.20
2020,09,29,10,54,19.30
2020,09,29,10,55,19.50
2020,09,29,10,56,19.50
2020,09,29,10,57,19.70
2020,09,29,10,58,19.80
2020,09,29,10,59,19.90
2020,09,29,11,00,20.00
2020,09,29,11,01,20.10
2020,09,29,11,02,20.20
2020,09,29,11,03,20.30
2020,09,29,11,04,20.40
2020,09,29,11,05,20.50
2020,09,29,11,06,20.60
2020,09,29,11,07,20.70
2020,09,29,11,08,20.80
2020,09,29,11,09,20.80
2020,09,29,11,10,20.90
2020,09,29,11,11,21.00
2020,09,29,11,12,21.00
2020,09,29,11,13,21.10
2020,09,29,11,14,21.20
2020,09,29,11,15,21.30
2020,09,29,11,16,21.30
2020,09,29,11,17,21.30
2020,09,29,11,18,21.40
2020,09,29,11,19,21.40
2020,09,29,11,20,21.50
2020,09,29,11,21,21.50
2020,09,29,11,22,21.60
2020,09,29,11,23,21.60
2020,09,29,11,24,21.70
2020,09,29,11,25,21.70
2020,09,29,11,26,21.70
2020,09,29,11,27,21.70
2020,09,29,11,28,21.80
2020,09,29,11,29,21.80
2020,09,29,11,30,21.90
2020,09,29,11,31,22.10
2020,09,29,11,32,22.20
2020,09,29,11,33,22.30
2020,09,29,11,34,22.40
2020,09,29,11,35,22.50
2020,09,29,11,36,22.60
2020,09,29,11,37,22.60
2020,09,29,11,38,22.70
2020,09,29,11,39,22.80
2020,09,29,11,40,22.80
2020,09,29,11,41,22.80
2020,09,29,11,42,22.80
2020,09,29,11,43,22.80
2020,09,29,11,44,22.80
2020,09,29,11,45,22.80
2020,09,29,11,46,22.80
2020,09,29,11,47,22.70
2020,09,29,11,48,22.60
2020,09,29,11,49,22.60
2020,09,29,11,50,22.70
2020,09,29,11,51,22.80
2020,09,29,11,52,22.90
2020,09,29,11,53,23.00
2020,09,29,11,54,23.00
2020,09,29,11,55,23.00
2020,09,29,11,56,23.10
2020,09,29,11,57,23.10
2020,09,29,11,58,23.10
2020,09,29,11,59,23.20
2020,09,29,12,00,23.20
2020,09,29,12,01,23.30
2020,09,29,12,02,23.30
2020,09,29,12,03,23.20
2020,09,29,12,04,23.10
2020,09,29,12,05,23.10
2020,09,29,12,06,23.00
2020,09,29,12,07,22.90
2020,09,29,12,08,22.80
2020,09,29,12,09,22.80
2020,09,29,12,10,22.90
2020,09,29,12,11,23.00
2020,09,29,12,12,23.00
2020,09,29,12,13,23.10
2020,09,29,12,14,23.10
2020,09,29,12,15,23.10
2020,09,29,12,16,23.00
2020,09,29,12,17,23.00
2020,09,29,12,18,22.90
2020,09,29,12,19,22.90
2020,09,29,12,20,23.00
2020,09,29,12,21,23.00
2020,09,29,12,22,23.10
2020,09,29,12,23,23.10
2020,09,29,12,24,23.20
2020,09,29,12,25,23.20
2020,09,29,12,26,23.30
2020,09,29,12,27,23.30
2020,09,29,12,28,23.40
2020,09,29,12,29,23.50
2020,09,29,12,30,23.50
2020,09,29,12,31,23.50
2020,09,29,12,32,23.60
2020,09,29,12,33,23.70
2020,09,29,12,34,23.80
2020,09,29,12,35,23.90
2020,09,29,12,36,24.00
2020,09,29,12,37,24.10
2020,09,29,12,38,24.10
2020,09,29,12,39,24.20
2020,09,29,12,40,24.30
2020,09,29,12,41,24.50
2020,09,29,12,42,24.50
2020,09,29,12,43,24.50
2020,09,29,12,44,24.50
2020,09,29,12,45,24.40
2020,09,29,12,46,24.40
2020,09,29,12,47,24.40
2020,09,29,12,48,24.50
2020,09,29,12,49,24.40
2020,09,29,12,50,24.40
2020,09,29,12,51,24.40
2020,09,29,12,52,24.40
2020,09,29,12,53,24.30
2020,09,29,12,54,24.20
2020,09,29,12,55,24.10
2020,09,29,12,56,24.10
2020,09,29,12,57,24.10
2020,09,29,12,58,24.10
2020,09,29,12,59,24.20
2020,09,29,13,00,24.30
2020,09,29,13,01,24.40
2020,09,29,13,02,24.50
2020,09,29,13,03,24.60
2020,09,29,13,04,24.70
2020,09,29,13,05,24.80
2020,09,29,13,06,24.80
2020,09,29,13,07,24.80
2020,09,29,13,08,24.90
2020,09,29,13,09,24.80
2020,09,29,13,10,24.80
2020,09,29,13,11,24.90
2020,09,29,13,12,24.90
2020,09,29,13,13,24.90
2020,09,29,13,14,24.80
2020,09,29,13,15,24.70
2020,09,29,13,16,24.60
2020,09,29,13,17,24.60
2020,09,29,13,18,24.60
2020,09,29,13,19,24.60
2020,09,29,13,20,24.70
2020,09,29,13,21,24.80
2020,09,29,13,22,24.90
2020,09,29,13,23,25.00
2020,09,29,13,24,25.00
2020,09,29,13,25,25.00
2020,09,29,13,26,24.90
2020,09,29,13,27,24.90
2020,09,29,13,28,24.90
2020,09,29,13,29,24.90
2020,09,29,13,30,24.90
2020,09,29,13,31,25.00
2020,09,29,13,32,25.10
2020,09,29,13,33,25.10
2020,09,29,13,34,25.20
2020,09,29,13,35,25.20
2020,09,29,13,36,25.30
2020,09,29,13,37,25.30
2020,09,29,13,38,25.50
2020,09,29,13,39,25.60
2020,09,29,13,40,25.70
2020,09,29,13,41,25.80
2020,09,29,13,42,25.70
2020,09,29,13,43,25.70
2020,09,29,13,44,25.80
2020,09,29,13,45,25.80
2020,09,29,13,46,25.80
2020,09,29,13,47,25.80
2020,09,29,13,48,25.70
2020,09,29,13,49,25.70
2020,09,29,13,50,25.70
2020,09,29,13,51,25.80
2020,09,29,13,52,25.80
2020,09,29,13,53,25.70
2020,09,29,13,54,25.70
2020,09,29,13,55,25.70
2020,09,29,13,56,25.80
2020,09,29,13,57,25.80
2020,09,29,13,58,25.80
2020,09,29,13,59,25.80
2020,09,29,14,00,25.90
2020,09,29,14,01,25.90
2020,09,29,14,02,26.00
2020,09,29,14,03,25.90
2020,09,29,14,04,25.90
2020,09,29,14,05,25.80
2020,09,29,14,06,25.80
2020,09,29,14,07,25.80
2020,09,29,14,08,25.90
2020,09,29,14,09,25.90
2020,09,29,14,10,25.90
2020,09,29,14,11,25.90
2020,09,29,14,12,25.80
2020,09,29,14,13,25.70
2020,09,29,14,14,25.70
2020,09,29,14,15,25.70
2020,09,29,14,16,25.70
2020,09,29,14,17,25.70
2020,09,29,14,18,25.70
2020,09,29,14,19,25.70
2020,09,29,14,20,25.60
2020,09,29,14,21,25.60
2020,09,29,14,22,25.60
2020,09,29,14,23,25.60
2020,09,29,14,24,25.70
2020,09,29,14,25,25.70
2020,09,29,14,26,25.70
2020,09,29,14,27,25.70
2020,09,29,14,28,25.70
2020,09,29,14,29,25.70
2020,09,29,14,30,25.60
2020,09,29,14,31,25.50
2020,09,29,14,32,25.40
2020,09,29,14,33,25.50
2020,09,29,14,34,25.50
2020,09,29,14,35,25.50
2020,09,29,14,36,25.50
2020,09,29,14,37,25.50
2020,09,29,14,38,25.40
2020,09,29,14,39,25.40
2020,09,29,14,40,25.40
2020,09,29,14,41,25.30
2020,09,29,14,42,25.20
2020,09,29,14,43,25.20
2020,09,29,14,44,25.10
2020,09,29,14,45,25.10
2020,09,29,14,46,25.00
2020,09,29,14,47,25.00
2020,09,29,14,48,25.00
2020,09,29,14,49,25.00
2020,09,29,14,50,25.10
2020,09,29,14,51,25.10
2020,09,29,14,52,25.00
2020,09,29,14,53,25.00
2020,09,29,14,54,24.90
2020,09,29,14,55,24.90
2020,09,29,14,56,25.00
2020,09,29,14,57,25.00
2020,09,29,14,58,25.10
2020,09,29,14,59,25.20
2020,09,29,15,00,25.20
2020,09,29,15,01,25.30
2020,09,29,15,02,25.30
2020,09,29,15,03,25.40
2020,09,29,15,04,25.30
2020,09,29,15,05,25.20
2020,09,29,15,06,25.20
2020,09,29,15,07,25.30
2020,09,29,15,08,25.30
2020,09,29,15,09,25.30
2020,09,29,15,10,25.30
2020,09,29,15,11,25.20
2020,09,29,15,12,25.20
2020,09,29,15,13,25.20
2020,09,29,15,14,25.30
2020,09,29,15,15,25.30
2020,09,29,15,16,25.30
2020,09,29,15,17,25.30
2020,09,29,15,18,25.30
2020,09,29,15,19,25.30
2020,09,29,15,20,25.40
2020,09,29,15,21,25.50
2020,09,29,15,22,25.60
2020,09,29,15,23,25.60
2020,09,29,15,24,25.60
2020,09,29,15,25,25.60
2020,09,29,15,26,25.60
2020,09,29,15,27,25.60
2020,09,29,15,28,25.60
2020,09,29,15,29,25.50
2020,09,29,15,30,25.40
2020,09,29,15,31,25.40
2020,09,29,15,32,25.30
2020,09,29,15,33,25.30
2020,09,29,15,34,25.20
2020,09,29,15,35,25.20
2020,09,29,15,36,25.10
2020,09,29,15,37,25.10
2020,09,29,15,38,25.10
2020,09,29,15,39,25.00
2020,09,29,15,40,25.00
2020,09,29,15,41,24.90
2020,09,29,15,42,25.00
2020,09,29,15,43,25.00
2020,09,29,15,44,25.00
2020,09,29,15,45,25.10
2020,09,29,15,46,25.10
2020,09,29,15,47,25.10
2020,09,29,15,48,25.10
2020,09,29,15,49,25.20
2020,09,29,15,50,25.30
2020,09,29,15,51,25.40
2020,09,29,15,52,25.50
2020,09,29,15,53,25.50
2020,09,29,15,54,25.60
2020,09,29,15,55,25.60
2020,09,29,15,56,25.60
2020,09,29,15,57,25.50
2020,09,29,15,58,25.50
2020,09,29,15,59,25.40
2020,09,29,16,00,25.30
2020,09,29,16,01,25.30
2020,09,29,16,02,25.30
2020,09,29,16,03,25.20
2020,09,29,16,04,25.20
2020,09,29,16,05,25.20
2020,09,29,16,06,25.20
2020,09,29,16,07,25.20
2020,09,29,16,08,25.30
2020,09,29,16,09,25.20
2020,09,29,16,10,25.30
2020,09,29,16,11,25.20
2020,09,29,16,12,25.20
2020,09,29,16,13,25.30
2020,09,29,16,14,25.30
2020,09,29,16,15,25.30
2020,09,29,16,16,25.30
2020,09,29,16,17,25.30
2020,09,29,16,18,25.20
2020,09,29,16,19,25.20
2020,09,29,16,20,25.20
2020,09,29,16,21,25.20
2020,09,29,16,22,25.20
2020,09,29,16,23,25.20
2020,09,29,16,24,25.20
2020,09,29,16,25,25.20
2020,09,29,16,26,25.20
2020,09,29,16,27,25.20
2020,09,29,16,28,25.20
2020,09,29,16,29,25.20
2020,09,29,16,30,25.20
2020,09,29,16,31,25.20
2020,09,29,16,32,25.20
2020,09,29,16,33,25.10
2020,09,29,16,34,25.10
2020,09,29,16,35,25.10
2020,09,29,16,36,25.10
2020,09,29,16,37,25.10
2020,09,29,16,38,25.00
2020,09,29,16,39,24.90
2020,09,29,16,40,24.90
2020,09,29,16,41,24.90
2020,09,29,16,42,24.90
2020,09,29,16,43,24.90
2020,09,29,16,44,24.90
2020,09,29,16,45,24.90
2020,09,29,16,46,24.90
2020,09,29,16,47,24.90
2020,09,29,16,48,24.90
2020,09,29,16,49,24.90
2020,09,29,16,50,24.90
2020,09,29,16,51,24.90
2020,09,29,16,52,24.80
2020,09,29,16,53,24.80
2020,09,29,16,54,24.80
2020,09,29,16,55,24.80
2020,09,29,16,56,24.80
2020,09,29,16,57,24.80
2020,09,29,16,58,24.80
2020,09,29,16,59,24.90
2020,09,29,17,00,24.90
2020,09,29,17,01,24.90
2020,09,29,17,02,24.80
2020,09,29,17,03,24.60
2020,09,29,17,04,24.50
2020,09,29,17,05,24.40
2020,09,29,17,06,24.40
2020,09,29,17,07,24.40
2020,09,29,17,08,24.30
2020,09,29,17,09,24.30
2020,09,29,17,10,24.10
2020,09,29,17,11,24.00
2020,09,29,17,12,23.90
2020,09,29,17,13,23.90
2020,09,29,17,14,23.80
2020,09,29,17,15,23.80
2020,09,29,17,16,23.80
2020,09,29,17,17,23.70
2020,09,29,17,18,23.70
2020,09,29,17,19,23.70
2020,09,29,17,20,23.70
2020,09,29,17,21,23.70
2020,09,29,17,22,23.70
2020,09,29,17,23,23.70
2020,09,29,17,24,23.70